CZ-6A DEB

Satellite information

Favourite Embed

Satellite Type and Status

DEBRISIN ORBIT

Key statistics

Satellite CZ-6A DEB at a glance.

Uptime

913

Days in orbit

Revolutions

≈ 13.7

Per day

Orbit

SSO

Sun Synchronous Orbit

Inclination

98.9

Latest

Satellite identification and parameters

Extended collection of information and parameters for CZ-6A DEB.

Object identification

Identified? True

Debris? True

Object name: CZ-6A DEB

International designator: 2022-151ABE

Object number (NORAD): 56238

Object ID (CCSDS): 56238

Country: PEOPLES REPUBLIC OF CHINA (PRC)

Current information (Y/N): Y

RCS size: SMALL

Orbital parameters

Period: 105.323 minutes

Inclination: 98.8928 deg

SMA: 7387.694 km

Apoapsis: 1190.65 km

Periapsis: 828.468 km

RAAN: 74.4131 deg

Eccentricy: 0.0245125

Argument of periapsis: 192.7417 deg

Mean anomaly: 166.7461 deg

Mean motion: 13.67223186 rev/day

Mean motion (dot): 0.00000157 rev/day2

B* drag term: 0.00019015 1/REarth

Two-line elements (TLE)

Creation date: May 11, 2025, 11:06 p.m.

Reference frame: TEME

Reference center: EARTH

Epoch: May 11, 2025, 1:19 p.m. UTC

TLE line 0: 0 CZ-6A DEB

TLE line 1: 1 56238U 22151ABE 25131.55486694 .00000157 00000-0 19015-3 0 9996

TLE line 2: 2 56238 98.8928 74.4131 0245125 192.7417 166.7461 13.67223186107019

Live tracking on map

Real-time ground track for satellite CZ-6A DEB.

In-orbit conjunctions

A list of the most updated potential collisions computed for object CZ-6A DEB.

Target Orbit TCA Probability of collision Miss distance Type
COSMOS 1574 LEO 2024-06-06 22:01:41 0.0001455021 129.0 (m) PAYLOAD

Associated space launch

Chinese satellite reported for atmospheric/ocean/environmental/spatial parameter research purposes, details TBD.

CZ-6A DEB was lifted into orbit during the mission ‘Long March 6A | Yunhai 3’, on board a Long March 6A space rocket.

The launch took place on Nov. 11, 2022, 10:52 p.m. from Launch Complex 9A.

For more information about the launch, click the button.

Launch to space Long March 6A | Yunhai 3
Long March 6A | Yunhai 3

Agency: N/A

Status: Launch Successful

Launch date: Nov. 11, 2022, 10:52 p.m. UTC

Rocket: Long March 6A

Launch pad: Launch Complex 9A

Location: Taiyuan Satellite Launch Center, People's Republic of China

...

Latest news about this satellite

There are no fresh news available about this satellite. Check back as we update our databases every day.


Newsletter sign-up

Weekly statistics, charts and insights to help you stay on top of the space industry.